{"data":{"norad_id":61238,"intl_designator":"2024-174A","name":"2024-174A","alt_names":[],"object_type":"PAYLOAD","status":"ACTIVE","operator":null,"country":"PRC","launch_date":"2024-09-24","launch_site_code":"JSC","launch_vehicle":null,"mission":null,"orbit_class":"UNKNOWN","rcs_meters":null,"size_class":null,"mass_kg":null,"dimensions":null,"purposes":[],"wikipedia_slug":null,"has_3d_model":false,"image_url":null,"decayed_at":null,"tle_current":{"epoch":"2026-05-24T18:01:29.489664Z","epoch_age_seconds":100567,"freshness":"FRESH","line1":"1 61238U 24174A   26144.75103576  .00003861  00000+0  18679-3 0  9990","line2":"2 61238  97.4477 152.8454 0001833  67.0096 293.1332 15.19178195 92126","mean_motion":15.19178195,"eccentricity":0.0001833,"inclination_deg":97.4477,"raan_deg":152.8454,"arg_perigee_deg":67.0096,"mean_anomaly_deg":293.1332,"bstar":0.00018679,"rev_number":9212,"period_min":94.788090346439,"perigee_km":507.06071042462,"apogee_km":509.58528666008,"semimajor_km":6886.4599985423,"source":"CELESTRAK","updated_at":"2026-05-25T13:38:02.345164Z"}}}